Simultaneous Nadir Overpasses (SNOs) Predictions

Prediction of SNOs between LANDSAT-8 and NOAA-19 Satellite Orbit:

Table of predicted SNOs for the next 14.0 days since TLE Epoch: 1/12/2018
Index Date (LANDSAT-8) Time (LANDSAT-8) Lat,Lon (LANDSAT-8) SZA (LANDSAT-8 ) Date (NOAA-19) Time (NOAA-19) Lat,Lon (NOAA-19) SZA (NOAA-19 ) Distance(km) Time Diff (sec)
1 01/13/2018 23:49:46 77.08,-165.67 98.52 01/13/2018 23:48:53 77.09,-165.66 98.52 0.56 53
2 01/14/2018 00:39:14 -77.05, 1.84 81.53 01/14/2018 00:39:55 -77.02, 1.87 81.54 2.92 41
3 01/16/2018 05:23:29 -77.11, -68.98 81.86 01/16/2018 05:22:37 -77.09, -69.03 81.89 3.35 52
4 01/16/2018 06:12:56 77.06, 98.45 98.07 01/16/2018 06:13:33 77.03, 98.48 98.06 2.61 37
5 01/18/2018 10:57:11 77.12, 27.61 97.70 01/18/2018 10:56:15 77.12, 27.48 97.70 3.24 56
6 01/18/2018 11:46:40 -77.04,-165.04 82.39 01/18/2018 11:47:18 -77.06,-165.01 82.37 2.18 38
7 01/20/2018 16:30:55 -77.10, 124.12 82.80 01/20/2018 16:29:59 -77.09, 124.24 82.81 3.13 56
8 01/20/2018 17:20:21 77.09, -68.30 97.18 01/20/2018 17:20:55 77.07, -68.40 97.17 2.96 34
9 01/22/2018 22:04:36 77.14,-139.15 96.74 01/22/2018 22:03:36 77.13,-139.24 96.72 2.94 60
10 01/22/2018 22:54:05 -77.07, 28.21 83.35 01/22/2018 22:54:40 -77.08, 28.21 83.34 0.61 35
11 01/25/2018 03:38:20 -77.13, -42.64 83.82 01/25/2018 03:37:21 -77.12, -42.58 83.83 1.66 59




NCC Satellite Simultaneous Nadir Overpasses (SNOs) Prediction Service
